Time,TemperatureF,DewpointF,PressureIn,WindDirection,WindDirectionDegrees,WindSpeedMPH,WindSpeedGustMPH,Humidity,HourlyPrecipIn,Conditions,Clouds,dailyrainin,SoftwareType,DateUTC
2013-11-17 00:01:00,51.3,46.0,29.99,East,101,1.0,1.0,82,0.00,,,0.00,Wunderground v.1.15,2013-11-17 05:01:00,
2013-11-17 00:02:00,51.2,45.9,29.99,ESE,102,1.0,1.0,82,0.00,,,0.00,Wunderground v.1.15,2013-11-17 05:02:00,
2013-11-17 00:04:00,51.2,45.9,29.99,ESE,117,1.0,2.0,82,0.00,,,0.00,Wunderground v.1.15,2013-11-17 05:04:00,
2013-11-17 00:07:00,51.3,46.0,29.99,SE,124,1.0,2.0,82,0.00,,,0.00,Wunderground v.1.15,2013-11-17 05:07:00,
2013-11-17 00:08:00,51.3,46.0,29.99,East,101,1.0,2.0,82,0.00,,,0.00,Wunderground v.1.15,2013-11-17 05:08:00,
2013-11-17 00:13:00,51.6,46.3,29.98,SE,138,1.0,3.0,82,0.00,,,0.00,Wunderground v.1.15,2013-11-17 05:13:00,
2013-11-17 00:15:00,51.7,46.4,29.98,SSW,199,1.0,3.0,82,0.00,,,0.00,Wunderground v.1.15,2013-11-17 05:15:00,
2013-11-17 00:20:00,52.0,46.3,29.98,ESE,122,1.0,1.0,81,0.00,,,0.00,Wunderground v.1.15,2013-11-17 05:20:00,
2013-11-17 00:25:00,52.0,46.3,29.97,East,93,1.0,2.0,81,0.00,,,0.00,Wunderground v.1.15,2013-11-17 05:25:00,
2013-11-17 00:30:00,52.0,46.3,29.98,ESE,109,1.0,1.0,81,0.00,,,0.00,Wunderground v.1.15,2013-11-17 05:30:00,
2013-11-17 00:36:00,52.0,46.3,29.98,ESE,105,1.0,2.0,81,0.00,,,0.00,Wunderground v.1.15,2013-11-17 05:36:00,
2013-11-17 00:41:00,52.0,46.3,29.98,East,84,1.0,2.0,81,0.00,,,0.00,Wunderground v.1.15,2013-11-17 05:41:00,
2013-11-17 00:47:00,52.1,46.4,29.98,East,95,1.0,2.0,81,0.00,,,0.00,Wunderground v.1.15,2013-11-17 05:47:00,
2013-11-17 00:52:00,52.1,46.4,29.98,ESE,113,0.0,2.0,81,0.00,,,0.00,Wunderground v.1.15,2013-11-17 05:52:00,
2013-11-17 00:57:00,52.3,46.6,29.97,ESE,104,1.0,2.0,81,0.00,,,0.00,Wunderground v.1.15,2013-11-17 05:57:00,
2013-11-17 01:03:00,52.6,46.9,29.97,ESE,103,1.0,3.0,81,0.00,,,0.00,Wunderground v.1.15,2013-11-17 06:03:00,
2013-11-17 01:09:00,52.8,46.8,29.97,East,100,1.0,3.0,80,0.00,,,0.00,Wunderground v.1.15,2013-11-17 06:09:00,
2013-11-17 01:15:00,52.8,47.1,29.97,East,101,1.0,3.0,81,0.00,,,0.00,Wunderground v.1.15,2013-11-17 06:15:00,
2013-11-17 01:21:00,53.0,47.0,29.96,East,94,1.0,2.0,80,0.00,,,0.00,Wunderground v.1.15,2013-11-17 06:21:00,
2013-11-17 01:26:00,53.2,47.2,29.96,ESE,120,2.0,4.0,80,0.00,,,0.00,Wunderground v.1.15,2013-11-17 06:26:00,
2013-11-17 01:32:00,53.5,47.5,29.96,ESE,112,2.0,2.0,80,0.00,,,0.00,Wunderground v.1.15,2013-11-17 06:32:00,
2013-11-17 01:38:00,53.7,47.3,29.97,ESE,121,2.0,3.0,79,0.00,,,0.00,Wunderground v.1.15,2013-11-17 06:38:00,
2013-11-17 01:43:00,53.7,47.3,29.97,ESE,120,2.0,2.0,79,0.00,,,0.00,Wunderground v.1.15,2013-11-17 06:43:00,
2013-11-17 01:49:00,53.7,47.3,29.97,ESE,109,1.0,2.0,79,0.00,,,0.00,Wunderground v.1.15,2013-11-17 06:49:00,
2013-11-17 01:54:00,53.7,47.3,29.97,ESE,103,2.0,3.0,79,0.00,,,0.00,Wunderground v.1.15,2013-11-17 06:54:00,
2013-11-17 02:00:00,53.5,47.5,29.97,ENE,77,1.0,2.0,80,0.00,,,0.00,Wunderground v.1.15,2013-11-17 07:00:00,
2013-11-17 02:05:00,53.6,47.2,29.97,ESE,104,1.0,2.0,79,0.00,,,0.00,Wunderground v.1.15,2013-11-17 07:05:00,
2013-11-17 02:10:00,53.5,47.5,29.97,ESE,105,1.0,1.0,80,0.00,,,0.00,Wunderground v.1.15,2013-11-17 07:10:00,
2013-11-17 02:16:00,53.4,47.4,29.97,ESE,105,1.0,3.0,80,0.00,,,0.00,Wunderground v.1.15,2013-11-17 07:16:00,
2013-11-17 02:21:00,53.4,47.4,29.96,ESE,113,1.0,2.0,80,0.00,,,0.00,Wunderground v.1.15,2013-11-17 07:21:00,
2013-11-17 02:26:00,53.4,47.4,29.96,East,91,1.0,3.0,80,0.00,,,0.00,Wunderground v.1.15,2013-11-17 07:26:00,
2013-11-17 02:32:00,53.6,47.6,29.96,ESE,120,1.0,3.0,80,0.00,,,0.00,Wunderground v.1.15,2013-11-17 07:32:00,
2013-11-17 02:38:00,53.9,47.5,29.96,ESE,112,2.0,3.0,79,0.00,,,0.00,Wunderground v.1.15,2013-11-17 07:38:00,
2013-11-17 02:43:00,53.9,47.5,29.95,East,90,2.0,2.0,79,0.00,,,0.00,Wunderground v.1.15,2013-11-17 07:43:00,
2013-11-17 02:48:00,53.9,47.5,29.95,ESE,118,2.0,3.0,79,0.00,,,0.00,Wunderground v.1.15,2013-11-17 07:48:00,
2013-11-17 02:53:00,53.9,47.9,29.95,East,86,2.0,2.0,80,0.00,,,0.00,Wunderground v.1.15,2013-11-17 07:53:00,
2013-11-17 02:59:00,54.1,48.1,29.95,ESE,116,2.0,5.0,80,0.00,,,0.00,Wunderground v.1.15,2013-11-17 07:59:00,
2013-11-17 03:04:00,54.1,48.1,29.94,ENE,69,3.0,3.0,80,0.00,,,0.00,Wunderground v.1.15,2013-11-17 08:04:00,
2013-11-17 03:09:00,54.1,48.1,29.93,East,90,3.0,5.0,80,0.00,,,0.00,Wunderground v.1.15,2013-11-17 08:09:00,
2013-11-17 03:14:00,53.9,47.9,29.93,East,87,2.0,4.0,80,0.00,,,0.00,Wunderground v.1.15,2013-11-17 08:14:00,
2013-11-17 03:20:00,53.7,48.0,29.93,East,98,2.0,3.0,81,0.00,,,0.00,Wunderground v.1.15,2013-11-17 08:20:00,
2013-11-17 03:25:00,53.6,48.2,29.93,ESE,117,2.0,3.0,82,0.00,,,0.00,Wunderground v.1.15,2013-11-17 08:25:00,
2013-11-17 03:30:00,53.4,48.4,29.93,ENE,65,1.0,1.0,83,0.00,,,0.00,Wunderground v.1.15,2013-11-17 08:30:00,
2013-11-17 03:35:00,53.2,48.2,29.93,East,100,1.0,2.0,83,0.00,,,0.00,Wunderground v.1.15,2013-11-17 08:35:00,
2013-11-17 03:41:00,53.0,48.6,29.93,ESE,120,1.0,1.0,85,0.00,,,0.00,Wunderground v.1.15,2013-11-17 08:41:00,
2013-11-17 03:46:00,52.5,48.4,29.93,ESE,103,1.0,3.0,86,0.00,,,0.00,Wunderground v.1.15,2013-11-17 08:46:00,
2013-11-17 03:51:00,52.3,48.5,29.93,ESE,120,2.0,3.0,87,0.00,,,0.00,Wunderground v.1.15,2013-11-17 08:51:00,
2013-11-17 03:57:00,51.8,48.7,29.93,East,84,2.0,3.0,89,0.23,,,0.03,Wunderground v.1.15,2013-11-17 08:57:00,
2013-11-17 04:02:00,51.3,48.8,29.93,WNW,283,2.0,3.0,91,0.22,,,0.04,Wunderground v.1.15,2013-11-17 09:02:00,
2013-11-17 04:07:00,51.0,48.8,29.92,East,94,1.0,3.0,92,0.12,,,0.05,Wunderground v.1.15,2013-11-17 09:07:00,
2013-11-17 04:13:00,50.8,48.8,29.92,ESE,107,1.0,3.0,93,0.06,,,0.05,Wunderground v.1.15,2013-11-17 09:13:00,
2013-11-17 04:18:00,50.6,48.7,29.92,WSW,240,1.0,3.0,93,0.04,,,0.05,Wunderground v.1.15,2013-11-17 09:18:00,
2013-11-17 04:23:00,50.6,48.9,29.92,ESE,109,1.0,2.0,94,0.00,,,0.05,Wunderground v.1.15,2013-11-17 09:23:00,
2013-11-17 04:28:00,50.6,48.9,29.92,East,98,1.0,2.0,94,0.00,,,0.05,Wunderground v.1.15,2013-11-17 09:28:00,
2013-11-17 04:34:00,50.5,48.8,29.92,ESE,110,1.0,2.0,94,0.00,,,0.05,Wunderground v.1.15,2013-11-17 09:34:00,
2013-11-17 04:39:00,50.5,48.8,29.92,ENE,78,1.0,2.0,94,0.00,,,0.05,Wunderground v.1.15,2013-11-17 09:39:00,
2013-11-17 04:44:00,50.5,48.8,29.92,ESE,103,1.0,2.0,94,0.00,,,0.05,Wunderground v.1.15,2013-11-17 09:44:00,
2013-11-17 04:50:00,50.5,48.8,29.92,ESE,116,1.0,1.0,94,0.00,,,0.07,Wunderground v.1.15,2013-11-17 09:50:00,
2013-11-17 04:55:00,50.5,49.1,29.92,East,94,1.0,2.0,95,0.00,,,0.07,Wunderground v.1.15,2013-11-17 09:55:00,
2013-11-17 05:00:00,50.6,49.2,29.91,East,84,1.0,3.0,95,0.07,,,0.08,Wunderground v.1.15,2013-11-17 10:00:00,
2013-11-17 05:05:00,50.6,49.2,29.91,ESE,104,2.0,3.0,95,0.07,,,0.08,Wunderground v.1.15,2013-11-17 10:05:00,
2013-11-17 05:11:00,50.7,49.3,29.90,East,84,1.0,3.0,95,0.05,,,0.08,Wunderground v.1.15,2013-11-17 10:11:00,
2013-11-17 05:16:00,50.8,49.4,29.90,East,94,1.0,3.0,95,0.00,,,0.08,Wunderground v.1.15,2013-11-17 10:16:00,
2013-11-17 05:21:00,50.8,49.4,29.90,ENE,74,1.0,1.0,95,0.00,,,0.08,Wunderground v.1.15,2013-11-17 10:21:00,
2013-11-17 05:26:00,50.9,49.5,29.90,ESE,113,1.0,3.0,95,0.00,,,0.08,Wunderground v.1.15,2013-11-17 10:26:00,
2013-11-17 05:32:00,50.9,49.5,29.91,SW,232,1.0,2.0,95,0.00,,,0.08,Wunderground v.1.15,2013-11-17 10:32:00,
2013-11-17 05:37:00,50.9,49.5,29.91,ESE,123,1.0,2.0,95,0.00,,,0.08,Wunderground v.1.15,2013-11-17 10:37:00,
2013-11-17 05:42:00,50.9,49.5,29.90,ESE,109,1.0,3.0,95,0.00,,,0.08,Wunderground v.1.15,2013-11-17 10:42:00,
2013-11-17 05:47:00,50.9,49.5,29.90,SW,226,1.0,3.0,95,0.00,,,0.08,Wunderground v.1.15,2013-11-17 10:47:00,
2013-11-17 05:52:00,51.0,49.6,29.90,SSE,150,2.0,3.0,95,0.00,,,0.08,Wunderground v.1.15,2013-11-17 10:52:00,
2013-11-17 05:57:00,51.0,49.6,29.90,ESE,113,2.0,3.0,95,0.00,,,0.08,Wunderground v.1.15,2013-11-17 10:57:00,
2013-11-17 06:03:00,51.0,49.6,29.90,East,99,2.0,3.0,95,0.00,,,0.08,Wunderground v.1.15,2013-11-17 11:03:00,
2013-11-17 06:08:00,51.0,49.6,29.90,ESE,111,2.0,5.0,95,0.00,,,0.08,Wunderground v.1.15,2013-11-17 11:08:00,
2013-11-17 06:13:00,51.0,49.6,29.90,ESE,108,2.0,3.0,95,0.00,,,0.08,Wunderground v.1.15,2013-11-17 11:13:00,
2013-11-17 06:18:00,51.0,49.6,29.90,East,98,1.0,3.0,95,0.00,,,0.08,Wunderground v.1.15,2013-11-17 11:18:00,
2013-11-17 06:24:00,51.0,49.6,29.90,East,89,1.0,2.0,95,0.00,,,0.08,Wunderground v.1.15,2013-11-17 11:24:00,
2013-11-17 06:29:00,51.0,49.6,29.90,ESE,103,1.0,2.0,95,0.00,,,0.08,Wunderground v.1.15,2013-11-17 11:29:00,
2013-11-17 06:34:00,51.0,49.6,29.90,ESE,118,1.0,2.0,95,0.00,,,0.08,Wunderground v.1.15,2013-11-17 11:34:00,
2013-11-17 06:39:00,51.0,49.6,29.90,ESE,121,1.0,2.0,95,0.00,,,0.08,Wunderground v.1.15,2013-11-17 11:39:00,
2013-11-17 06:44:00,51.1,49.7,29.91,ESE,121,1.0,3.0,95,0.00,,,0.09,Wunderground v.1.15,2013-11-17 11:44:00,
2013-11-17 06:49:00,51.1,49.7,29.90,ESE,103,1.0,3.0,95,0.00,,,0.09,Wunderground v.1.15,2013-11-17 11:49:00,
2013-11-17 06:55:00,51.2,49.8,29.91,ESE,110,1.0,2.0,95,0.08,,,0.11,Wunderground v.1.15,2013-11-17 11:55:00,
2013-11-17 07:00:00,51.2,49.8,29.91,NE,50,1.0,1.0,95,0.10,,,0.12,Wunderground v.1.15,2013-11-17 12:00:00,
2013-11-17 07:05:00,51.1,50.0,29.91,West,259,1.0,3.0,96,0.12,,,0.13,Wunderground v.1.15,2013-11-17 12:05:00,
2013-11-17 07:10:00,51.1,50.0,29.91,ENE,63,1.0,1.0,96,0.11,,,0.15,Wunderground v.1.15,2013-11-17 12:10:00,
2013-11-17 07:15:00,51.1,50.0,29.90,East,96,1.0,4.0,96,0.16,,,0.16,Wunderground v.1.15,2013-11-17 12:15:00,
2013-11-17 07:21:00,51.2,50.1,29.90,ESE,120,2.0,6.0,96,0.15,,,0.19,Wunderground v.1.15,2013-11-17 12:21:00,
2013-11-17 07:26:00,51.2,50.1,29.90,East,98,1.0,6.0,96,0.09,,,0.19,Wunderground v.1.15,2013-11-17 12:26:00,
2013-11-17 07:31:00,51.3,50.2,29.90,East,94,1.0,2.0,96,0.06,,,0.20,Wunderground v.1.15,2013-11-17 12:31:00,
2013-11-17 07:36:00,51.3,50.2,29.90,East,98,1.0,3.0,96,0.06,,,0.20,Wunderground v.1.15,2013-11-17 12:36:00,
2013-11-17 07:41:00,51.4,50.3,29.89,SW,219,1.0,5.0,96,0.08,,,0.21,Wunderground v.1.15,2013-11-17 12:41:00,
2013-11-17 07:46:00,51.4,50.3,29.88,ESE,113,1.0,5.0,96,0.07,,,0.21,Wunderground v.1.15,2013-11-17 12:46:00,
2013-11-17 07:51:00,51.6,50.8,29.88,East,101,1.0,2.0,97,0.06,,,0.23,Wunderground v.1.15,2013-11-17 12:51:00,
2013-11-17 07:56:00,51.7,50.9,29.88,SE,131,2.0,3.0,97,0.06,,,0.23,Wunderground v.1.15,2013-11-17 12:56:00,
2013-11-17 08:01:00,51.9,51.1,29.87,East,95,1.0,2.0,97,0.04,,,0.23,Wunderground v.1.15,2013-11-17 13:01:00,
2013-11-17 08:06:00,51.9,51.1,29.88,ENE,60,1.0,4.0,97,0.00,,,0.23,Wunderground v.1.15,2013-11-17 13:06:00,
2013-11-17 08:11:00,52.0,51.2,29.88,SW,226,2.0,2.0,97,0.00,,,0.23,Wunderground v.1.15,2013-11-17 13:11:00,
2013-11-17 08:16:00,52.1,51.3,29.87,East,100,2.0,3.0,97,0.00,,,0.24,Wunderground v.1.15,2013-11-17 13:16:00,
2013-11-17 08:22:00,52.3,51.5,29.86,WSW,243,2.0,2.0,97,0.00,,,0.24,Wunderground v.1.15,2013-11-17 13:22:00,
2013-11-17 08:28:00,52.5,51.4,29.85,WSW,246,2.0,3.0,96,0.00,,,0.24,Wunderground v.1.15,2013-11-17 13:28:00,
2013-11-17 08:33:00,52.6,51.5,29.85,ESE,103,2.0,5.0,96,0.00,,,0.24,Wunderground v.1.15,2013-11-17 13:33:00,
2013-11-17 08:38:00,52.6,51.5,29.85,ESE,103,2.0,6.0,96,0.00,,,0.24,Wunderground v.1.15,2013-11-17 13:38:00,
2013-11-17 08:43:00,52.9,51.8,29.84,NE,47,3.0,4.0,96,0.00,,,0.24,Wunderground v.1.15,2013-11-17 13:43:00,
2013-11-17 08:48:00,53.0,51.9,29.84,SE,131,3.0,5.0,96,0.00,,,0.24,Wunderground v.1.15,2013-11-17 13:48:00,
2013-11-17 08:53:00,53.1,52.0,29.84,South,171,2.0,3.0,96,0.00,,,0.24,Wunderground v.1.15,2013-11-17 13:53:00,
2013-11-17 08:58:00,53.2,51.8,29.85,SSE,155,2.0,3.0,95,0.00,,,0.24,Wunderground v.1.15,2013-11-17 13:58:00,
2013-11-17 09:04:00,53.3,51.9,29.85,ESE,113,1.0,2.0,95,0.00,,,0.24,Wunderground v.1.15,2013-11-17 14:04:00,
2013-11-17 09:09:00,53.4,52.0,29.85,East,82,2.0,5.0,95,0.00,,,0.24,Wunderground v.1.15,2013-11-17 14:09:00,
2013-11-17 09:15:00,53.5,52.1,29.85,ESE,102,2.0,3.0,95,0.00,,,0.24,Wunderground v.1.15,2013-11-17 14:15:00,
2013-11-17 09:20:00,53.6,52.2,29.84,SSW,205,2.0,2.0,95,0.00,,,0.24,Wunderground v.1.15,2013-11-17 14:20:00,
2013-11-17 09:25:00,53.7,52.3,29.84,East,98,3.0,4.0,95,0.00,,,0.24,Wunderground v.1.15,2013-11-17 14:25:00,
2013-11-17 09:30:00,54.0,52.6,29.84,East,84,3.0,3.0,95,0.00,,,0.24,Wunderground v.1.15,2013-11-17 14:30:00,
2013-11-17 09:35:00,54.1,52.4,29.84,East,94,3.0,4.0,94,0.00,,,0.24,Wunderground v.1.15,2013-11-17 14:35:00,
2013-11-17 09:40:00,54.3,52.6,29.84,East,88,2.0,3.0,94,0.00,,,0.24,Wunderground v.1.15,2013-11-17 14:40:00,
2013-11-17 09:46:00,54.5,52.8,29.84,East,79,2.0,3.0,94,0.00,,,0.24,Wunderground v.1.15,2013-11-17 14:46:00,
2013-11-17 09:51:00,54.5,52.8,29.84,SE,127,2.0,2.0,94,0.00,,,0.24,Wunderground v.1.15,2013-11-17 14:51:00,
2013-11-17 09:56:00,54.6,52.9,29.84,ESE,102,2.0,3.0,94,0.00,,,0.24,Wunderground v.1.15,2013-11-17 14:56:00,
2013-11-17 10:01:00,54.7,53.0,29.84,ESE,110,2.0,3.0,94,0.00,,,0.24,Wunderground v.1.15,2013-11-17 15:01:00,
2013-11-17 10:06:00,54.9,53.2,29.84,East,99,2.0,4.0,94,0.00,,,0.24,Wunderground v.1.15,2013-11-17 15:06:00,
2013-11-17 10:11:00,55.0,53.3,29.84,SSW,208,2.0,4.0,94,0.00,,,0.24,Wunderground v.1.15,2013-11-17 15:11:00,
2013-11-17 10:16:00,54.9,53.2,29.84,ESE,108,2.0,4.0,94,0.00,,,0.24,Wunderground v.1.15,2013-11-17 15:16:00,
2013-11-17 10:21:00,54.9,53.2,29.84,ENE,78,2.0,3.0,94,0.00,,,0.24,Wunderground v.1.15,2013-11-17 15:21:00,
2013-11-17 10:26:00,54.9,53.2,29.83,NNE,13,2.0,5.0,94,0.00,,,0.24,Wunderground v.1.15,2013-11-17 15:26:00,
2013-11-17 10:31:00,54.8,53.1,29.83,ESE,103,2.0,4.0,94,0.00,,,0.24,Wunderground v.1.15,2013-11-17 15:31:00,
2013-11-17 10:36:00,54.9,53.2,29.83,SE,124,2.0,4.0,94,0.00,,,0.24,Wunderground v.1.15,2013-11-17 15:36:00,
2013-11-17 10:41:00,54.9,53.2,29.83,ESE,119,2.0,2.0,94,0.00,,,0.24,Wunderground v.1.15,2013-11-17 15:41:00,
2013-11-17 10:46:00,54.9,53.2,29.82,East,90,1.0,4.0,94,0.00,,,0.24,Wunderground v.1.15,2013-11-17 15:46:00,
2013-11-17 10:51:00,54.9,52.9,29.82,ESE,107,2.0,4.0,93,0.00,,,0.24,Wunderground v.1.15,2013-11-17 15:51:00,
2013-11-17 10:56:00,55.0,53.0,29.82,ESE,122,2.0,9.0,93,0.00,,,0.24,Wunderground v.1.15,2013-11-17 15:56:00,
2013-11-17 11:02:00,55.1,53.1,29.82,East,84,2.0,3.0,93,0.00,,,0.24,Wunderground v.1.15,2013-11-17 16:02:00,
2013-11-17 11:07:00,55.1,53.1,29.82,SE,127,2.0,3.0,93,0.00,,,0.24,Wunderground v.1.15,2013-11-17 16:07:00,
2013-11-17 11:12:00,55.2,53.2,29.81,ESE,105,2.0,3.0,93,0.00,,,0.24,Wunderground v.1.15,2013-11-17 16:12:00,
2013-11-17 11:17:00,55.2,53.2,29.81,East,100,1.0,3.0,93,0.00,,,0.24,Wunderground v.1.15,2013-11-17 16:17:00,
2013-11-17 11:22:00,55.3,53.3,29.81,East,86,2.0,2.0,93,0.00,,,0.24,Wunderground v.1.15,2013-11-17 16:22:00,
2013-11-17 11:27:00,55.6,53.6,29.81,ENE,72,2.0,2.0,93,0.00,,,0.24,Wunderground v.1.15,2013-11-17 16:27:00,
2013-11-17 11:32:00,55.8,53.8,29.80,SSE,162,2.0,4.0,93,0.00,,,0.24,Wunderground v.1.15,2013-11-17 16:32:00,
2013-11-17 11:37:00,56.1,53.8,29.80,ESE,118,2.0,4.0,92,0.00,,,0.24,Wunderground v.1.15,2013-11-17 16:37:00,
2013-11-17 11:42:00,56.3,54.0,29.79,ESE,102,2.0,2.0,92,0.00,,,0.24,Wunderground v.1.15,2013-11-17 16:42:00,
2013-11-17 11:47:00,56.7,54.4,29.79,ESE,123,2.0,6.0,92,0.00,,,0.24,Wunderground v.1.15,2013-11-17 16:47:00,
2013-11-17 11:52:00,57.0,54.4,29.79,NNW,330,2.0,2.0,91,0.00,,,0.24,Wunderground v.1.15,2013-11-17 16:52:00,
2013-11-17 11:58:00,57.3,54.7,29.78,ESE,120,2.0,5.0,91,0.00,,,0.24,Wunderground v.1.15,2013-11-17 16:58:00,
2013-11-17 12:03:00,57.7,54.8,29.78,East,86,2.0,4.0,90,0.00,,,0.24,Wunderground v.1.15,2013-11-17 17:03:00,
2013-11-17 12:08:00,57.9,55.0,29.78,East,100,2.0,4.0,90,0.00,,,0.24,Wunderground v.1.15,2013-11-17 17:08:00,
2013-11-17 12:14:00,58.1,55.2,29.78,East,96,2.0,3.0,90,0.00,,,0.24,Wunderground v.1.15,2013-11-17 17:14:00,
2013-11-17 12:19:00,58.2,55.0,29.78,West,262,2.0,7.0,89,0.00,,,0.24,Wunderground v.1.15,2013-11-17 17:19:00,
2013-11-17 12:24:00,58.3,55.1,29.77,ESE,117,3.0,4.0,89,0.00,,,0.24,Wunderground v.1.15,2013-11-17 17:24:00,
2013-11-17 12:29:00,58.4,54.9,29.76,NNE,32,3.0,5.0,88,0.00,,,0.24,Wunderground v.1.15,2013-11-17 17:29:00,
2013-11-17 12:35:00,58.4,55.2,29.76,East,98,3.0,5.0,89,0.00,,,0.24,Wunderground v.1.15,2013-11-17 17:35:00,
2013-11-17 12:40:00,58.2,55.0,29.76,SE,132,2.0,3.0,89,0.00,,,0.24,Wunderground v.1.15,2013-11-17 17:40:00,
2013-11-17 12:45:00,58.0,54.8,29.76,East,92,2.0,4.0,89,0.00,,,0.24,Wunderground v.1.15,2013-11-17 17:45:00,
2013-11-17 12:51:00,57.9,55.0,29.76,SE,142,2.0,3.0,90,0.00,,,0.24,Wunderground v.1.15,2013-11-17 17:51:00,
2013-11-17 12:56:00,57.8,54.9,29.76,ESE,113,2.0,4.0,90,0.00,,,0.24,Wunderground v.1.15,2013-11-17 17:56:00,
2013-11-17 13:01:00,57.8,54.9,29.75,East,84,2.0,2.0,90,0.00,,,0.24,Wunderground v.1.15,2013-11-17 18:01:00,
2013-11-17 13:07:00,57.9,55.0,29.75,ESE,114,2.0,5.0,90,0.00,,,0.24,Wunderground v.1.15,2013-11-17 18:07:00,
2013-11-17 13:12:00,58.0,55.1,29.75,East,94,2.0,2.0,90,0.00,,,0.24,Wunderground v.1.15,2013-11-17 18:12:00,
2013-11-17 13:17:00,58.0,55.1,29.75,SSE,147,2.0,4.0,90,0.00,,,0.24,Wunderground v.1.15,2013-11-17 18:17:00,
2013-11-17 13:22:00,58.0,55.1,29.75,ENE,70,3.0,3.0,90,0.00,,,0.24,Wunderground v.1.15,2013-11-17 18:22:00,
2013-11-17 13:27:00,57.9,55.0,29.75,SE,136,2.0,3.0,90,0.00,,,0.24,Wunderground v.1.15,2013-11-17 18:27:00,
2013-11-17 13:33:00,57.8,54.9,29.74,East,99,2.0,7.0,90,0.00,,,0.24,Wunderground v.1.15,2013-11-17 18:33:00,
2013-11-17 13:38:00,57.8,54.9,29.74,ESE,110,2.0,7.0,90,0.00,,,0.24,Wunderground v.1.15,2013-11-17 18:38:00,
2013-11-17 13:43:00,57.9,55.0,29.73,ESE,117,2.0,2.0,90,0.00,,,0.24,Wunderground v.1.15,2013-11-17 18:43:00,
2013-11-17 13:49:00,58.0,55.1,29.72,ESE,114,2.0,7.0,90,0.00,,,0.24,Wunderground v.1.15,2013-11-17 18:49:00,
2013-11-17 13:54:00,58.1,55.2,29.72,ENE,58,2.0,4.0,90,0.00,,,0.24,Wunderground v.1.15,2013-11-17 18:54:00,
2013-11-17 13:59:00,58.2,55.0,29.71,South,173,3.0,5.0,89,0.00,,,0.24,Wunderground v.1.15,2013-11-17 18:59:00,
2013-11-17 14:04:00,58.3,55.1,29.70,East,90,3.0,8.0,89,0.00,,,0.24,Wunderground v.1.15,2013-11-17 19:04:00,
2013-11-17 14:10:00,58.5,55.3,29.70,SE,142,3.0,3.0,89,0.00,,,0.24,Wunderground v.1.15,2013-11-17 19:10:00,
2013-11-17 14:15:00,58.6,55.4,29.69,SW,235,2.0,5.0,89,0.00,,,0.24,Wunderground v.1.15,2013-11-17 19:15:00,
2013-11-17 14:20:00,58.7,55.5,29.69,ESE,120,2.0,2.0,89,0.00,,,0.24,Wunderground v.1.15,2013-11-17 19:20:00,
2013-11-17 14:25:00,58.8,55.6,29.68,SE,125,2.0,6.0,89,0.00,,,0.24,Wunderground v.1.15,2013-11-17 19:25:00,
2013-11-17 14:31:00,58.8,55.6,29.68,ENE,65,2.0,4.0,89,0.00,,,0.24,Wunderground v.1.15,2013-11-17 19:31:00,
2013-11-17 14:36:00,58.9,55.4,29.68,SE,128,3.0,4.0,88,0.00,,,0.24,Wunderground v.1.15,2013-11-17 19:36:00,
2013-11-17 14:41:00,59.0,55.4,29.67,ESE,110,3.0,5.0,88,0.00,,,0.24,Wunderground v.1.15,2013-11-17 19:41:00,
2013-11-17 14:46:00,59.2,55.6,29.67,ENE,77,3.0,5.0,88,0.00,,,0.24,Wunderground v.1.15,2013-11-17 19:46:00,
2013-11-17 14:52:00,59.5,55.9,29.67,North,5,3.0,3.0,88,0.00,,,0.24,Wunderground v.1.15,2013-11-17 19:52:00,
2013-11-17 14:57:00,59.6,56.0,29.67,ENE,78,3.0,4.0,88,0.00,,,0.24,Wunderground v.1.15,2013-11-17 19:57:00,
2013-11-17 15:02:00,59.6,56.0,29.67,SE,134,2.0,3.0,88,0.00,,,0.24,Wunderground v.1.15,2013-11-17 20:02:00,
2013-11-17 15:08:00,59.6,56.0,29.66,East,98,2.0,5.0,88,0.00,,,0.24,Wunderground v.1.15,2013-11-17 20:08:00,
2013-11-17 15:13:00,59.7,56.1,29.66,SE,131,3.0,3.0,88,0.00,,,0.24,Wunderground v.1.15,2013-11-17 20:13:00,
2013-11-17 15:18:00,59.7,56.1,29.65,East,93,3.0,3.0,88,0.00,,,0.24,Wunderground v.1.15,2013-11-17 20:18:00,
2013-11-17 15:24:00,59.7,56.1,29.65,East,94,2.0,9.0,88,0.00,,,0.24,Wunderground v.1.15,2013-11-17 20:24:00,
2013-11-17 15:29:00,59.7,56.1,29.64,ESE,121,2.0,9.0,88,0.00,,,0.24,Wunderground v.1.15,2013-11-17 20:29:00,
2013-11-17 15:34:00,59.6,56.0,29.64,NE,47,2.0,4.0,88,0.00,,,0.24,Wunderground v.1.15,2013-11-17 20:34:00,
2013-11-17 15:39:00,59.6,56.0,29.64,WNW,289,2.0,5.0,88,0.00,,,0.24,Wunderground v.1.15,2013-11-17 20:39:00,
2013-11-17 15:45:00,59.6,56.0,29.64,ESE,121,2.0,2.0,88,0.00,,,0.24,Wunderground v.1.15,2013-11-17 20:45:00,
2013-11-17 15:50:00,59.5,55.9,29.64,SW,229,2.0,2.0,88,0.00,,,0.24,Wunderground v.1.15,2013-11-17 20:50:00,
2013-11-17 15:55:00,59.5,55.9,29.64,ESE,103,2.0,4.0,88,0.00,,,0.24,Wunderground v.1.15,2013-11-17 20:55:00,
2013-11-17 16:00:00,59.4,55.8,29.64,SW,232,2.0,2.0,88,0.00,,,0.24,Wunderground v.1.15,2013-11-17 21:00:00,
2013-11-17 16:06:00,59.5,56.3,29.63,ESE,105,2.0,5.0,89,0.00,,,0.24,Wunderground v.1.15,2013-11-17 21:06:00,
2013-11-17 16:11:00,59.5,56.3,29.63,NE,55,3.0,4.0,89,0.00,,,0.24,Wunderground v.1.15,2013-11-17 21:11:00,
2013-11-17 16:16:00,59.2,56.3,29.61,SSE,162,3.0,6.0,90,0.00,,,0.24,Wunderground v.1.15,2013-11-17 21:16:00,
2013-11-17 16:21:00,58.8,56.2,29.60,East,82,3.0,3.0,91,0.00,,,0.24,Wunderground v.1.15,2013-11-17 21:21:00,
2013-11-17 16:27:00,58.6,56.3,29.60,East,89,3.0,6.0,92,0.00,,,0.24,Wunderground v.1.15,2013-11-17 21:27:00,
2013-11-17 16:32:00,58.5,56.2,29.60,SE,132,2.0,3.0,92,0.00,,,0.24,Wunderground v.1.15,2013-11-17 21:32:00,
2013-11-17 16:37:00,58.5,56.2,29.60,ESE,113,2.0,3.0,92,0.00,,,0.24,Wunderground v.1.15,2013-11-17 21:37:00,
2013-11-17 16:42:00,58.4,56.1,29.60,SE,127,2.0,3.0,92,0.00,,,0.24,Wunderground v.1.15,2013-11-17 21:42:00,
2013-11-17 16:48:00,58.4,56.1,29.60,ENE,75,2.0,4.0,92,0.00,,,0.24,Wunderground v.1.15,2013-11-17 21:48:00,
2013-11-17 16:53:00,58.4,56.1,29.59,ESE,120,2.0,2.0,92,0.00,,,0.24,Wunderground v.1.15,2013-11-17 21:53:00,
2013-11-17 16:58:00,58.4,56.1,29.58,SSE,149,2.0,5.0,92,0.00,,,0.24,Wunderground v.1.15,2013-11-17 21:58:00,
2013-11-17 17:04:00,58.5,56.2,29.58,East,79,2.0,2.0,92,0.00,,,0.24,Wunderground v.1.15,2013-11-17 22:04:00,
2013-11-17 17:09:00,58.5,56.2,29.58,ENE,75,2.0,5.0,92,0.00,,,0.24,Wunderground v.1.15,2013-11-17 22:09:00,
2013-11-17 17:14:00,58.5,56.2,29.58,SE,124,2.0,2.0,92,0.00,,,0.24,Wunderground v.1.15,2013-11-17 22:14:00,
2013-11-17 17:20:00,58.6,56.0,29.58,ESE,122,2.0,2.0,91,0.00,,,0.24,Wunderground v.1.15,2013-11-17 22:20:00,
2013-11-17 17:25:00,58.7,56.1,29.58,East,98,2.0,3.0,91,0.00,,,0.24,Wunderground v.1.15,2013-11-17 22:25:00,
2013-11-17 17:30:00,58.7,56.1,29.58,SSE,159,2.0,2.0,91,0.00,,,0.24,Wunderground v.1.15,2013-11-17 22:30:00,
2013-11-17 17:36:00,58.7,56.1,29.58,East,101,2.0,7.0,91,0.00,,,0.24,Wunderground v.1.15,2013-11-17 22:36:00,
2013-11-17 17:41:00,58.9,56.3,29.57,ESE,104,2.0,2.0,91,0.00,,,0.24,Wunderground v.1.15,2013-11-17 22:41:00,
2013-11-17 17:46:00,59.1,56.2,29.56,SE,129,3.0,4.0,90,0.00,,,0.24,Wunderground v.1.15,2013-11-17 22:46:00,
2013-11-17 17:51:00,59.3,56.4,29.56,ESE,105,4.0,4.0,90,0.00,,,0.24,Wunderground v.1.15,2013-11-17 22:51:00,
2013-11-17 17:57:00,59.3,56.1,29.55,South,171,4.0,4.0,89,0.00,,,0.24,Wunderground v.1.15,2013-11-17 22:57:00,
2013-11-17 18:02:00,59.3,56.1,29.55,East,89,4.0,4.0,89,0.00,,,0.24,Wunderground v.1.15,2013-11-17 23:02:00,
2013-11-17 18:07:00,59.5,56.3,29.54,SW,233,4.0,6.0,89,0.00,,,0.24,Wunderground v.1.15,2013-11-17 23:07:00,
2013-11-17 18:12:00,59.5,56.3,29.54,ESE,104,3.0,5.0,89,0.00,,,0.24,Wunderground v.1.15,2013-11-17 23:12:00,
2013-11-17 18:18:00,59.5,56.3,29.54,East,90,4.0,5.0,89,0.00,,,0.24,Wunderground v.1.15,2013-11-17 23:18:00,
2013-11-17 18:23:00,59.5,56.3,29.53,SE,126,3.0,3.0,89,0.00,,,0.24,Wunderground v.1.15,2013-11-17 23:23:00,
2013-11-17 18:28:00,59.5,56.3,29.53,ENE,75,3.0,4.0,89,0.00,,,0.24,Wunderground v.1.15,2013-11-17 23:28:00,
2013-11-17 18:33:00,59.6,56.4,29.52,NNE,33,3.0,8.0,89,0.00,,,0.24,Wunderground v.1.15,2013-11-17 23:33:00,
2013-11-17 18:39:00,59.5,56.3,29.51,ENE,71,3.0,8.0,89,0.00,,,0.24,Wunderground v.1.15,2013-11-17 23:39:00,
2013-11-17 18:44:00,59.5,55.9,29.51,ENE,66,3.0,5.0,88,0.00,,,0.24,Wunderground v.1.15,2013-11-17 23:44:00,
2013-11-17 18:49:00,59.8,56.2,29.50,ESE,111,4.0,9.0,88,0.00,,,0.24,Wunderground v.1.15,2013-11-17 23:49:00,
2013-11-17 18:55:00,59.8,56.2,29.49,ESE,103,5.0,9.0,88,0.00,,,0.24,Wunderground v.1.15,2013-11-17 23:55:00,
2013-11-17 19:00:00,59.8,56.2,29.49,SW,236,4.0,4.0,88,0.00,,,0.24,Wunderground v.1.15,2013-11-18 00:00:00,
2013-11-17 19:05:00,59.7,56.1,29.49,SE,134,3.0,4.0,88,0.00,,,0.24,Wunderground v.1.15,2013-11-18 00:05:00,
2013-11-17 19:10:00,59.9,56.3,29.49,SE,144,4.0,4.0,88,0.00,,,0.24,Wunderground v.1.15,2013-11-18 00:10:00,
2013-11-17 19:16:00,60.0,56.1,29.48,NNW,344,4.0,9.0,87,0.00,,,0.24,Wunderground v.1.15,2013-11-18 00:16:00,
2013-11-17 19:21:00,60.1,56.5,29.47,SE,132,4.0,6.0,88,0.00,,,0.24,Wunderground v.1.15,2013-11-18 00:21:00,
2013-11-17 19:26:00,59.9,56.6,29.48,ENE,68,5.0,7.0,89,0.00,,,0.24,Wunderground v.1.15,2013-11-18 00:26:00,
2013-11-17 19:32:00,59.3,56.4,29.46,SW,225,4.0,6.0,90,0.00,,,0.25,Wunderground v.1.15,2013-11-18 00:32:00,
2013-11-17 19:37:00,58.9,56.3,29.45,ESE,102,3.0,6.0,91,0.00,,,0.25,Wunderground v.1.15,2013-11-18 00:37:00,
2013-11-17 19:42:00,58.8,56.5,29.45,SE,142,4.0,4.0,92,0.00,,,0.25,Wunderground v.1.15,2013-11-18 00:42:00,
2013-11-17 19:47:00,58.7,56.4,29.44,WSW,246,4.0,4.0,92,0.00,,,0.25,Wunderground v.1.15,2013-11-18 00:47:00,
2013-11-17 19:52:00,58.8,56.5,29.44,East,90,4.0,7.0,92,0.00,,,0.25,Wunderground v.1.15,2013-11-18 00:52:00,
2013-11-17 19:58:00,58.9,56.3,29.43,ESE,105,4.0,7.0,91,0.00,,,0.25,Wunderground v.1.15,2013-11-18 00:58:00,
2013-11-17 20:03:00,58.9,56.3,29.43,East,82,3.0,5.0,91,0.00,,,0.25,Wunderground v.1.15,2013-11-18 01:03:00,
2013-11-17 20:08:00,59.1,56.5,29.44,SW,217,4.0,6.0,91,0.00,,,0.25,Wunderground v.1.15,2013-11-18 01:08:00,
2013-11-17 20:13:00,59.2,56.6,29.44,East,100,3.0,5.0,91,0.00,,,0.25,Wunderground v.1.15,2013-11-18 01:13:00,
2013-11-17 20:19:00,58.9,56.6,29.43,SSE,155,3.0,6.0,92,0.18,,,0.28,Wunderground v.1.15,2013-11-18 01:19:00,
2013-11-17 20:24:00,58.6,56.6,29.42,East,92,3.0,6.0,93,0.09,,,0.28,Wunderground v.1.15,2013-11-18 01:24:00,
2013-11-17 20:30:00,58.3,56.3,29.42,SE,127,3.0,3.0,93,0.15,,,0.31,Wunderground v.1.15,2013-11-18 01:30:00,
2013-11-17 20:35:00,58.1,56.4,29.42,ESE,113,3.0,4.0,94,0.18,,,0.32,Wunderground v.1.15,2013-11-18 01:35:00,
2013-11-17 20:40:00,57.9,56.2,29.42,SSW,207,2.0,2.0,94,0.07,,,0.32,Wunderground v.1.15,2013-11-18 01:40:00,
2013-11-17 20:45:00,57.8,56.1,29.42,NNE,33,2.0,2.0,94,0.49,,,0.36,Wunderground v.1.15,2013-11-18 01:45:00,
2013-11-17 20:51:00,57.7,56.3,29.42,WSW,239,2.0,2.0,95,0.43,,,0.47,Wunderground v.1.15,2013-11-18 01:51:00,
2013-11-17 20:56:00,57.6,56.2,29.40,East,91,2.0,4.0,95,0.60,,,0.52,Wunderground v.1.15,2013-11-18 01:56:00,
2013-11-17 21:02:00,57.6,56.5,29.43,East,98,3.0,3.0,96,1.02,,,0.57,Wunderground v.1.15,2013-11-18 02:02:00,
2013-11-17 21:07:00,57.6,56.5,29.40,SW,233,4.0,8.0,96,0.14,,,0.59,Wunderground v.1.15,2013-11-18 02:07:00,
2013-11-17 21:13:00,57.8,56.7,29.41,SW,222,4.0,5.0,96,0.10,,,0.60,Wunderground v.1.15,2013-11-18 02:13:00,
2013-11-17 21:18:00,57.8,56.4,29.41,SW,217,3.0,5.0,95,0.06,,,0.60,Wunderground v.1.15,2013-11-18 02:18:00,
2013-11-17 21:23:00,57.7,56.6,29.40,SE,124,1.0,2.0,96,0.05,,,0.61,Wunderground v.1.15,2013-11-18 02:23:00,
2013-11-17 21:28:00,57.7,56.6,29.40,SE,127,1.0,2.0,96,0.05,,,0.61,Wunderground v.1.15,2013-11-18 02:28:00,
2013-11-17 21:33:00,57.7,56.6,29.40,NE,46,1.0,3.0,96,0.14,,,0.64,Wunderground v.1.15,2013-11-18 02:33:00,
2013-11-17 21:39:00,57.8,56.7,29.41,SSW,212,2.0,7.0,96,0.67,,,0.68,Wunderground v.1.15,2013-11-18 02:39:00,
2013-11-17 21:44:00,58.0,56.9,29.43,West,274,3.0,6.0,96,0.32,,,0.72,Wunderground v.1.15,2013-11-18 02:44:00,
2013-11-17 21:49:00,55.9,52.7,29.43,West,262,6.0,15.0,89,1.84,,,0.80,Wunderground v.1.15,2013-11-18 02:49:00,
2013-11-17 21:54:00,54.0,51.7,29.43,SW,229,8.0,14.0,92,0.34,,,0.91,Wunderground v.1.15,2013-11-18 02:54:00,
2013-11-17 22:00:00,53.9,52.2,29.41,SE,132,5.0,5.0,94,0.08,,,0.91,Wunderground v.1.15,2013-11-18 03:00:00,
2013-11-17 22:05:00,54.5,51.6,29.42,SW,236,4.0,6.0,90,0.05,,,0.91,Wunderground v.1.15,2013-11-18 03:05:00,
2013-11-17 22:10:00,55.2,51.1,29.42,NE,56,6.0,6.0,86,0.00,,,0.91,Wunderground v.1.15,2013-11-18 03:10:00,
2013-11-17 22:16:00,55.4,49.7,29.40,SW,224,6.0,14.0,81,0.00,,,0.92,Wunderground v.1.15,2013-11-18 03:16:00,
2013-11-17 22:21:00,55.2,49.8,29.39,ESE,107,4.0,4.0,82,0.00,,,0.92,Wunderground v.1.15,2013-11-18 03:21:00,
2013-11-17 22:26:00,54.6,50.2,29.37,ESE,109,1.0,4.0,85,0.00,,,0.92,Wunderground v.1.15,2013-11-18 03:26:00,
2013-11-17 22:32:00,53.8,49.7,29.39,East,98,1.0,2.0,86,0.00,,,0.92,Wunderground v.1.15,2013-11-18 03:32:00,
2013-11-17 22:37:00,53.2,49.7,29.40,SSE,148,1.0,2.0,88,0.00,,,0.92,Wunderground v.1.15,2013-11-18 03:37:00,
2013-11-17 22:42:00,52.8,49.6,29.41,SSE,148,0.0,1.0,89,0.00,,,0.92,Wunderground v.1.15,2013-11-18 03:42:00,
2013-11-17 22:47:00,52.6,49.1,29.42,WNW,284,0.0,4.0,88,0.00,,,0.92,Wunderground v.1.15,2013-11-18 03:47:00,
2013-11-17 22:52:00,52.8,48.7,29.41,SSW,198,1.0,2.0,86,0.00,,,0.92,Wunderground v.1.15,2013-11-18 03:52:00,
2013-11-17 22:58:00,53.6,47.9,29.41,SE,127,3.0,4.0,81,0.00,,,0.92,Wunderground v.1.15,2013-11-18 03:58:00,
2013-11-17 23:03:00,53.7,47.7,29.41,SW,236,3.0,5.0,80,0.00,,,0.92,Wunderground v.1.15,2013-11-18 04:03:00,
2013-11-17 23:09:00,53.7,47.7,29.41,SW,217,3.0,5.0,80,0.00,,,0.92,Wunderground v.1.15,2013-11-18 04:09:00,
2013-11-17 23:15:00,53.7,47.7,29.42,SSE,148,2.0,4.0,80,0.00,,,0.92,Wunderground v.1.15,2013-11-18 04:15:00,
2013-11-17 23:20:00,53.5,48.1,29.42,SW,225,2.0,2.0,82,0.00,,,0.92,Wunderground v.1.15,2013-11-18 04:20:00,
2013-11-17 23:25:00,53.5,47.8,29.43,SSW,210,2.0,5.0,81,0.00,,,0.92,Wunderground v.1.15,2013-11-18 04:25:00,
2013-11-17 23:30:00,53.7,48.3,29.42,SW,218,3.0,3.0,82,0.00,,,0.92,Wunderground v.1.15,2013-11-18 04:30:00,
2013-11-17 23:36:00,53.6,48.6,29.43,SSE,147,2.0,3.0,83,0.00,,,0.92,Wunderground v.1.15,2013-11-18 04:36:00,
2013-11-17 23:41:00,53.5,48.5,29.43,SSW,196,2.0,7.0,83,0.00,,,0.92,Wunderground v.1.15,2013-11-18 04:41:00,
2013-11-17 23:46:00,53.4,48.4,29.44,WNW,284,3.0,7.0,83,0.00,,,0.92,Wunderground v.1.15,2013-11-18 04:46:00,
2013-11-17 23:52:00,53.8,48.8,29.45,SW,229,4.0,4.0,83,0.00,,,0.92,Wunderground v.1.15,2013-11-18 04:52:00,
2013-11-17 23:57:00,54.0,48.6,29.45,SE,136,4.0,5.0,82,0.00,,,0.92,Wunderground v.1.15,2013-11-18 04:57:00,